www.pogodaiklimat.ru

Погода и климат >> Архив погоды >> Россия >> Нижегородская область >> Арзамас


ПОГОДА в Арзамасе

АРХИВ ПОГОДЫ в Арзамасе

Время (UTC), дата Ветер
(напр.,м/с)
 
Видим.   Явления Облачность Т
(С)
Тd
(С)
f
(%)
Тe
(С)
Тes
(С)
Комфортность P
(гПа)
Po
(гПа)
Тmin
(С)
Tmax
(С)
R
(мм)
R24
(мм)
S
(см)
09 12.02 Ю 5-8
{9}
20 км 10/0
[As op]
-3.9 -6.8 80 -11 -10 по сезону 1021.2 1005.2
12 12.02 Ю 4-7
{9}
20 км позёмок 10/0
[As op]
-1.3 -4.9 76 -7 -7 по сезону 1020.0 1004.3
15 12.02 Ю 4-7
{10}
4000 м слаб. снег {метель} 10/0
[As op]
-1.6 -4.2 82 -7 -7 по сезону 1020.5 1004.7 -1.2 0.0
18 12.02 Ю 5-9
{10}
4000 м позёмок {снег} 10/10 300 м
[Sc]
-3.1 -7.0 74 -10 -10 по сезону 1020.6 1004.8
21 12.02 Ю 4-7
{10}
4000 м {метель} 10/3 300 м
[Sc As op]
-3.6 -10.6 58 -9 -9 по сезону 1020.7 1004.8
00 13.02 Ю 4-7
{10}
4000 м слаб. снег {метель} 10/0
[As op]
-4.9 -7.7 81 -11 -11 по сезону 1020.0 1004.1
03 13.02 Ю 4-6
{9}
4000 м {снег} 9/0
[Ac As]
-4.6 -11.7 58 -10 -10 по сезону 1018.8 1002.9 -5.0 0.0 34
06 13.02 Ю 4-8
{8}
20 км {снег} 10/0
[Ac und]
-4.2 -12.1 54 -10 -10 по сезону 1016.4 1000.6
09 13.02 Ю 5-9
{10}
20 км 10/8 300 м
[Sc As op]
-2.4 -8.8 61 -9 -8 по сезону 1013.6 997.9
12 13.02 Ю 5-8
{11}
500 м снег {метель} ?/? -3.6 -5.0 90 -11 -11 по сезону 1011.4 995.7
15 13.02 Ю 5-10
{11}
20 км позёмок {снег} 10/10 300 м
[Sc]
-2.8 -5.5 82 -9 -9 по сезону 1010.6 995.0 -2.4 3
18 13.02 Ю 5-11
{12}
4000 м слаб. снег {метель} 10/0 300 м
[As op]
-2.1 -4.2 86 -9 -9 по сезону 1010.6 995.0
21 13.02 ЮЗ 4-5
{11}
4000 м слаб. снег {метель} 10/0 300 м
[As op]
-1.3 -2.5 92 -7 -7 тепло 1012.1 996.6
00 14.02 З 4-6
{9}
4000 м позёмок {снег} 10/10 300 м
[Sc]
-2.3 -4.8 83 -8 -8 по сезону 1015.2 999.5
03 14.02 З 3-4
{6}
4000 м слаб. снег {метель} 10/0 300 м
[As op]
-2.7 -4.3 89 -8 -8 тепло 1016.8 1001.1 -2.8 1 36
06 14.02 З 2-3
{5}
20 км слаб. снег {метель} 10/0 300 м
[As op]
-3.3 -5.0 88 -7 -7 тепло 1018.4 1002.6 -3.3
09 14.02 СЗ 3-5
{7}
20 км в посл. час снег 10/10 300 м
[Sc]
-2.4 -5.3 80 -7 -7 по сезону 1020.3 1004.5
12 14.02 З 3-5
{6}
20 км {снег} 10/10 300 м
[Sc]
-3.6 -6.8 78 -9 -9 по сезону 1022.5 1006.6
15 14.02 З 4-5
{7}
4000 м 10/10 300 м
[Sc]
-5.2 -8.9 75 -11 -11 по сезону 1024.0 1008.0 -2.2 0.2
18 14.02 З 2-3
{6}
4000 м 10/10 300 м
[Sc]
-5.7 -9.1 77 -10 -10 по сезону 1025.0 1008.9
21 14.02 ЮЗ 1-2
{3}
4000 м 10/10 300 м
[Sc]
-7.8 -10.0 84 -10 -10 по сезону 1024.9 1008.7
00 15.02 Ю 1-2
{3}
4000 м 10/10 300 м
[Sc]
-7.6 -9.8 84 -10 -10 по сезону 1023.5 1007.4
03 15.02 штиль 0
{5}
4000 м 10/10 300 м
[St]
-6.6 -9.0 83 -7 -7 тепло 1020.0 1004.0 -8.6 36
06 15.02 ЮЗ 5-8
{9}
20 км 10/10 300 м
[St]
-4.1 -6.7 82 -11 -11 по сезону 1016.6 1000.8
09 15.02 ЮЗ 8-12
{14}
20 км слаб. снег {метель} 10/0 300 м
[As op]
-3.3 -5.4 85 -12 -12 по сезону 1011.4 995.8
12 15.02 З 6 20 км слаб. снег {метель} 10/0 300 м
[As op]
-1.8 -3.2 90 -9 -9 по сезону 1008.1 992.5
15 15.02 З 6-8
{12}
4000 м {снег} 10/10 300 м
[St]
-0.1 -1.9 88 -7 -7 по сезону 1009.6 994.1 -0.1 1
18 15.02 З 5-7
{9}
4000 м {снег} 10/10 300 м
[Sc]
+1.0 -1.0 86 -5 -5 тепло 1005.7 990.4
21 15.02 З 5-8
{8}
4000 м 10/10 300 м
[Sc]
+0.9 -1.1 86 -5 -5 тепло 1005.3 990.0
00 16.02 З 3-5
{8}
4000 м 10/10 300 м
[Sc]
+1.3 -1.3 83 -3 -3 тепло 1004.9 989.6
03 16.02 З 3-5
{7}
4000 м слаб. снег 10/0 300 м
[As op]
+1.0 -1.0 86 -3 -3 тепло 1005.0 989.7 -0.2 0.0 35
06 16.02 СЗ 4-6
{7}
20 км в посл. час зёрна {морось} 10/10 300 м
[Sc]
+1.4 -0.3 88 -4 -4 тепло 1005.5 990.2
09 16.02 СЗ 5-9
{10}
20 км {снег, морось} 10/10 300 м
[Sc]
+2.5 -1.8 73 -3 -3 тепло 1006.4 991.2
12 16.02 СЗ 6-10
{13}
20 км {снег, морось} 9/9 300 м
[Sc]
+2.4 -3.9 63 -3 -3 тепло 1008.1 992.7
15 16.02 СЗ 2-3
{12}
4000 м 3/0
[Ci fib]
-0.8 -6.2 67 -4 -4 тепло 1010.0 994.5 +3.0 0.0
18 16.02 штиль 0
{3}
4000 м ясно -8.2 -10.1 86 -9 -9 по сезону 1010.2 994.2
21 16.02 штиль 0
{2}
4000 м 8/0
[Ac trans]
-7.6 -9.4 87 -8 -8 по сезону 1008.7 992.7
00 17.02 Ю 3-5
{6}
4000 м 10/0
[Ac trans Cs]
-4.0 -6.6 82 -9 -9 по сезону 1004.8 989.1
03 17.02 Ю 5-8
{9}
4000 м 10/0
[As op]
-2.3 -4.2 87 -9 -9 по сезону 999.6 984.1 -10.2 34
06 17.02 ЮЗ 6-8
{10}
20 км 10/0
[As op]
-1.0 -2.5 90 -8 -8 по сезону 996.3 981.0
09 17.02 З 6-8
{10}
20 км 10/6 300 м
[Sc As op]
+0.7 -2.2 81 -6 -6 тепло 993.3 978.1
12 17.02 З 4-6
{9}
20 км 10/10 300 м
[Sc]
+1.5 -2.0 78 -3 -3 тепло 991.0 975.9
15 17.02 З 3-3
{7}
4000 м 9/9 300 м
[Sc]
+1.3 -3.2 72 -3 -3 тепло 990.9 975.8 +2.2
18 17.02 СЗ 3-6
{12}
4000 м слаб. снег {метель} 10/6 300 м
[Sc As op]
-0.5 -2.9 84 -5 -5 тепло 991.8 976.6
21 17.02 СЗ 5-8
{8}
4000 м слаб. снег 10/0 300 м
[As op]
0.0 -3.7 76 -6 -6 тепло 992.0 976.8
00 18.02 СЗ 7-13
{13}
4000 м слаб. снег {метель} 10/0 300 м
[As op]
-0.2 -3.6 78 -7 -7 тепло 993.4 978.1
03 18.02 СЗ 6-12
{14}
4000 м слаб. снег {метель} 10/0 300 м
[As op]
-0.9 -5.1 73 -8 -8 по сезону 995.9 980.6 -0.9 1 34
06 18.02 С 8-14
{15}
20 км метель {снег} 8/3 300 м
[Sc]
-2.1 -8.8 60 -10 -10 по сезону 1000.1 984.6 -2.6
09 18.02 С 7-12
{17}
20 км метель {снег} 10/0
[Ac und]
-2.8 -10.8 54 -10 -10 по сезону 1003.8 988.2
12 18.02 С 9-16
{18}
20 км метель {снег} ясно -3.4 -16.7 35 -11 -11 по сезону 1007.8 992.1
15 18.02 С 7-16
{17}
4000 м метель ясно -4.9 -17.1 38 -12 -12 по сезону 1011.2 995.5 -0.9 0.0
18 18.02 С 5-8
{15}
4000 м метель ясно -6.5 -15.4 49 -13 -13 по сезону 1014.5 998.6
21 18.02 С 4-8
{9}
4000 м {метель} ясно -7.8 -17.0 48 -14 -14 по сезону 1017.4 1001.3
00 19.02 СЗ 2-3
{8}
4000 м ясно -10.7 -16.0 65 -15 -15 по сезону 1019.5 1003.2
03 19.02 С 2-2
{4}
4000 м ясно -15.9 -18.6 80 -21 -21 холодно 1021.1 1004.4 -15.9 33
06 19.02 штиль 0
{3}
20 км 8/0
[Ci fib]
-14.2 -17.0 79 -14 -13 по сезону 1021.3 1004.8 -17.6

 

Местоположение метеостанции Арзамас (Нижегородская область, Россия): широта 55.37 долгота 43.78 высота над уровнем моря 124 м.

В архиве по умолчанию представлена погода в Арзамасе за последнюю неделю. Архивные данные за месяц целиком и за предыдущие месяцы, начиная с января 2011 года, Вы можете получить, выбрав интересующий диапазон дат из раскрывающегося списка и нажав кнопку "Ввод!".


*Определитесь, кто Вы:
робот инопланетянин человек

Внимание! Время в таблицах - всемирное. Для получения местного времени необходимо прибавить поправку, которая равна 3 ч.

Смотрите также архив погоды в соседних городах и на ближайших метеорологических станциях:

Погода в Дальнем Константиново (Нижегородская область, Россия) (51 км)
Погода в Лукоянове (Нижегородская область, Россия) (59 км)
Погода в Павлово (Нижегородская область, Россия) (80 км)
Погода в Темникове (Мордовия, Россия) (89 км)
Погода в Нижнем Новгороде аэропорт (Нижегородская область, Россия) (95 км)
Погода в Нижнем Новгороде (Нижегородская область, Россия) (101 км)
Погода в Краснослободске (Мордовия, Россия) (105 км)
Погода в Выксе (Нижегородская область, Россия) (105 км)
Погода в Большом Болдино (Нижегородская область, Россия) (105 км)
Погода в Лысково (Нижегородская область, Россия) (106 км)

Пояснения к столбцам:

Ветер - указаны скорость ветра в м/с - средняя за 10 мин, порывы в срок и между сроками (в фигурных скобках) и направление, откуда дует ветер: С - северный, СВ - северо-восточный, В - восточный, ЮВ - юго-восточный, Ю - южный, ЮЗ - юго-западный, З - западный, СЗ - северо-западный.
Видимость - горизонтальная дальность видимости в метрах или километрах. При видимости от 1 до 10 км при отсутствии осадков обычно наблюдается дымка, при ухудшении видимости до 1 км и менее - туман. В сухую погоду видимость может ухудшаться дымом, пылью или мглою.
Явления - указаны атмосферные явления, наблюдавшиеся в срок или в последний час перед сроком; фигурными скобками обозначены явления, наблюдавшиеся между сроками (за 1-3 часа до срока); квадратными скобками обозначены град или гололедные отложения с указанием их диаметра в мм.
Облачность - указаны через наклонную черту общая и нижняя облачность в баллах и высота нижней границы облаков в метрах; квадратными скобками обозначены формы облаков: Ci - перистые, Cs - перисто-слоистые, Cc - перисто-кучевые, Ac - высококучевые, As - высокослоистые, Sc - слоисто-кучевые, Ns - слоисто-дождевые, Cu - кучевые, Cb - кучево-дождевые. Подробнее классификацию облаков см. в Атласе облаков (PDF).
T - Температура воздуха - температура, измеренная на высоте 2 м над землей.
Td - Температура точки росы - температура, при понижении до которой содержащийся в воздухе водяной пар достигнет насыщения.
f - Относительная влажность воздуха - влажноcть воздуха, измеренная на высоте 2 м над землей.
Te - Эффективная температура - температура, которую ощущает одетый по сезону человек в тени. Характеристика душности погоды. При расчете учитывается влияние влажности воздуха и скорости ветра на теплоощущения человека.
Tes - Эффективная температура на солнце - температура, которую ощущает человек, с поправкой на солнечный нагрев. Характеристика знойности погоды. Зависит от высоты солнца над горизонтом, облачности и скорости ветра. Ночью, в пасмурную погоду, а также при ветре 12 м/с и более поправка равна нулю.
P - Атмосферное давление - приведенное к уровню моря атмосферное давление.
Po - Атмосферное давление - измеренное на уровне метеостанции атмосферное давление.
Tmin - Минимальная температура - минимум температуры воздуха на высоте 2 м над землей.
Tmax - Максимальная температура - максимум температуры воздуха на высоте 2 м над землей.
R - Количество осадков - Количество выпавших осадков за период времени, мм. При наведении курсора мыши на число - период времени, за который выпало указанное количество осадков.
R24 - Количество осадков - Количество выпавших осадков за 24 часа, мм.
S - Снежный покров - Высота снежного покрова, см. При наведении курсора мыши на число - состояние снежного покрова и степень покрытия местности в баллах.